Location: *
(49.9853°N, 3.5569°E)
Time: 14:28:21
(UTC+00:00)

Cosmos 1939 Rocket - Pass Details

Date: 22 September 2019
Orbit: 534 x 583 km, 97.4° (Epoch: 21 October)

Event Time Altitude Azimuth Distance (km) Brightness Sun altitude
Rises 18:35:25 0° 167° (SSE) 2,674 6.1 -8.9°
Reaches altitude 10° 18:37:31 10° 168° (SSE) 1,787 5.2 -9.3°
Maximum altitude 18:41:23 84° 255° (WSW) 546 2.8 -9.9°
Drops below altitude 10° 18:45:17 10° 346° (NNW) 1,807 5.8 -10.5°
Sets 18:47:25 0° 347° (NNW) 2,707 6.7 -10.8°
